Dewpoint
-8 -8 -8 -8 -11 -10 -7 -8 -7 -7 -6 -6 -5 -5 -4 -4 -3 -3 -3 -2 -2 -2 -3 -4 -6 -4 -4 -1 0 -4 -0 -3 -2 -2 -5 -6 -7 -9 -8 -9 -8 -6 -2 2 -0 -1 -1 -11 -11 -6 -4 -4 -3 -4
-5 -8 -9 -10 -10 -8 -6 -7 -7 -6 -6 -5 -5 -6 -7 -5 -5 -5 -3 -3 -3 -3 -2 -3 -3 -3 -5 -5 -4 -2 -1 -2 -6 -3 -6 -9 -7 -5 -6 -3 -9 -5 -7 -5 -2 2 -2 -4 -2 -4 -1 1 -1 0
-6 -6 -9 -10 -9 -11 -11 -10 -10 -9 -6 -6 -6 -7 -7 -8 -9 -10 -3 -3 -5 -3 -4 -5 -6 -7 -5 -5 -5 -5 -4 -5 -4 -5 -5 -5 -4 -8 -4 -6 -5 -8 -11 -5 -5 -6 -7 -7 -6 -8 -4 -1 -0 -0
-9 -8 -11 -10 -9 -10 -9 -9 -10 -10 -8 -7 -7 -7 -8 -7 -5 -7 -4 -3 -3 -4 -4 -7 -8 -8 -7 -7 -6 -5 -5 -7 -7 -7 -5 -3 -4 -9 -5 -6 -5 -5 -7 -4 -3 -4 -4 -3 -7 -3 -0 -1 1 1
-9 -8 -8 -10 -9 -9 -10 -7 -7 -10 -11 -12 -13 -13 -14 -13 -11 -8 -4 -4 -4 -4 -3 -3 -7 -8 -7 -8 -8 -8 -8 -7 -8 -5 -2 -2 -6 -5 -6 -5 -3 -6 -3 -1 -0 -4 -2 -1 0 1 1 0 -0 1
-5 -6 -9 -10 -9 -10 -11 -10 -9 -9 -10 -11 -12 -12 -11 -11 -11 -7 -5 -6 -7 -5 -3 -4 -4 -5 -6 -6 -8 -9 -8 -8 -7 -7 -5 -6 -7 -5 -3 -3 -7 -9 -9 -8 -5 -4 -1 -2 -1 0 -0 -1 -0 -0
-4 -5 -10 -10 -10 -12 -12 -11 -10 -9 -9 -9 -10 -10 -11 -10 -8 -5 -4 -3 -4 -3 -4 -4 -5 -6 -5 -5 -6 -7 -8 -7 -7 -5 -5 -5 -5 -4 -2 -2 -7 -9 -9 -9 -7 -4 -0 -1 -0 -0 -1 -0 -0 -1
-4 -7 -11 -10 -9 -10 -11 -11 -10 -10 -9 -7 -7 -7 -6 -6 -4 -4 -6 -3 -3 -3 -5 -4 -5 -3 -4 -2 -2 -5 -4 -4 -3 -4 -5 -5 -7 -6 -2 -8 -9 -9 -9 -8 -5 -1 -1 -1 -2 0 -1 -1 -1 -2
-6 -9 -11 -10 -9 -10 -9 -8 -7 -8 -7 -5 -4 -4 -4 -4 -4 -5 -6 -4 -3 -3 -2 -4 -6 -5 -3 -3 -3 -3 -4 -2 -5 -2 -4 -6 -4 -3 -8 -9 -9 -9 -9 -7 -7 -2 -0 0 0 -0 -1 -1 -3 -3
-10 -11 -11 -10 -9 -10 -10 -9 -6 -4 -3 -3 -3 -3 -3 -3 -3 -3 -3 -4 -4 -3 -4 -2 -6 -2 -2 -2 -1 -3 -4 -5 -4 -5 -8 -3 -4 -8 -9 -9 -8 -8 -8 -8 -8 -1 1 1 0 -1 -1 -2 -4 -4
-9 -9 -10 -10 -7 -4 -3 -3 -3 -2 -3 -3 -3 -3 -3 -3 -3 -3 -3 -3 -3 -3 -5 -6 -5 -2 -2 -2 -1 -5 -3 -5 -5 -6 -6 -6 -5 -5 -7 -8 -9 -8 -8 -8 -8 -4 -1 -0 -0 -1 -2 -3 -4 -5
-10 -9 -4 -3 -3 -2 -3 -2 -2 -2 -3 -2 -2 -2 -2 -2 -2 -1 -2 -4 -4 -6 -6 -3 -4 -5 -1 -2 0 -4 -4 -5 -4 -3 -3 -4 -3 -8 -7 -7 -6 -6 -6 -7 -7 -3 -0 -0 -0 -2 -2 -3 -4 -7
-5 -3 -3 -3 -3 -2 -2 -2 -2 -2 -2 -2 -2 -2 -2 -2 -0 -2 -2 -4 -3 -4 -4 -4 -2 -3 0 -2 -1 -1 -2 -1 -1 1 -1 -3 -3 -1 -1 -1 -1 -1 -2 -5 -6 -1 -1 -1 -1 -2 -3 -4 -6 -8
-3 -3 -3 -3 -3 -2 -2 -2 -2 -2 -2 -1 -2 -0 -0 -0 -2 -3 -4 -6 -6 -3 -3 -4 -2 -3 -3 -1 1 -1 -2 -1 -1 -1 -4 0 -2 -2 -1 -2 -1 -1 -0 -1 -1 -1 -1 -2 -1 -3 -3 -4 -7 -8
-3 -4 -3 -2 -3 -2 -2 -2 -2 -2 -1 -1 -0 -1 -1 -2 0 0 0 -4 -4 -3 -4 -2 -2 -3 -2 -0 -2 -2 0 -1 -2 -1 0 -2 -3 -3 -2 -2 -2 -1 -1 -1 -1 -1 -1 -2 -3 -3 -4 -7 -8 -9
-4 -4 -3 -4 -3 -2 -2 -2 -2 -1 -1 -1 -3 -1 -1 0 0 -1 0 0 -2 -2 -3 -3 -2 -1 -1 -2 -2 -2 -2 -1 1 -1 -2 -3 -3 -3 -3 -3 -2 -2 -1 -1 -1 -1 -2 -3 -3 -5 -7 -7 -8 -9
-4 -2 -4 -5 -3 -2 -2 -2 -2 -1 -1 -1 -1 -2 -2 -1 -0 -0 -0 -1 -1 -1 1 -1 -1 -2 -3 -3 -4 -4 0 -1 -2 -3 -4 -4 -4 -4 -4 -3 -3 -3 -3 -3 -3 -3 -3 -4 -4 -6 -7 -8 -9 -9
-2 -2 -6 -6 -3 -2 -2 -2 -2 -1 -2 -2 -1 -2 -2 -2 -1 -1 -1 -0 0 -0 -2 -1 -2 -1 -1 -1 1 -1 -1 -3 -2 -3 -4 -5 -5 -5 -4 -4 -4 -4 -4 -4 -4 -5 -5 -5 -6 -7 -8 -8 -9 -10
-3 -6 -7 -5 -3 -2 -2 -2 -2 -2 -2 -2 -2 -3 -3 -3 -2 -2 -1 -1 -1 -1 -2 -2 -1 -0 -1 -3 -3 -4 -4 -4 -4 -4 -5 -6 -6 -5 -5 -5 -5 -6 -5 -6 -6 -6 -6 -5 -7 -7 -9 -9 -9 -10
-4 -8 -7 -6 -5 -2 -2 -3 -2 -2 -1 -2 -2 -2 -2 -3 -3 -2 -2 -2 -2 -2 -3 -2 -3 -3 -3 -4 -4 -4 -5 -5 -5 -4 -5 -6 -6 -6 -6 -6 -6 -6 -6 -7 -7 -6 -6 -6 -6 -7 -8 -8 -8 -10
-4 -4 -7 -5 -4 -3 -4 -4 -4 -3 -2 -2 -3 -2 -2 -3 -2 -3 -3 -3 -4 -3 -4 -4 -4 -4 -5 -5 -5 -5 -6 -6 -5 -5 -4 -6 -6 -6 -6 -6 -6 -6 -6 -6 -6 -6 -6 -6 -7 -7 -8 -7 -8 -9
-3 -7 -4 -4 -2 -4 -4 -4 -4 -4 -2 -3 -3 -2 -2 -2 -2 -3 -5 -5 -5 -4 -4 -4 -5 -4 -5 -5 -5 -6 -6 -6 -7 -6 -6 -6 -6 -6 -6 -5 -5 -5 -5 -5 -6 -6 -6 -6 -7 -8 -8 -8 -8 -9
-7 -7 -4 -4 -3 -4 -4 -4 -5 -5 -3 -2 -3 -3 -2 -2 -4 -6 -5 -6 -5 -6 -6 -6 -6 -6 -6 -5 -6 -6 -5 -6 -6 -6 -5 -5 -5 -5 -5 -5 -5 -5 -5 -6 -6 -6 -6 -7 -7 -8 -8 -8 -9 -9
-5 -4 -8 -4 -4 -3 -4 -3 -6 -7 -7 -5 -5 -5 -4 -5 -6 -5 -5 -5 -5 -6 -6 -6 -4 -5 -5 -5 -6 -6 -5 -5 -6 -5 -5 -5 -5 -5 -5 -5 -5 -5 -5 -6 -6 -6 -6 -6 -7 -8 -8 -8 -9 -9
-4 -5 -4 -4 -5 -4 -3 -4 -4 -6 -4 -5 -5 -5 -4 -6 -5 -6 -6 -6 -6 -6 -6 -5 -5 -5 -5 -5 -6 -6 -6 -6 -5 -6 -6 -6 -6 -6 -6 -6 -6 -6 -7 -7 -6 -7 -7 -7 -8 -8 -8 -9 -9 -9
-4 -5 -5 -6 -5 -4 -5 -4 -4 -4 -5 -4 -4 -5 -5 -5 -5 -5 -7 -6 -6 -7 -7 -6 -6 -5 -7 -7 -7 -7 -7 -6 -6 -6 -6 -6 -6 -6 -6 -6 -6 -6 -7 -7 -7 -7 -7 -8 -8 -9 -9 -9 -10 -10
-5 -6 -6 -6 -6 -7 -5 -5 -6 -5 -4 -4 -4 -4 -4 -4 -4 -7 -7 -8 -8 -8 -8 -8 -8 -7 -8 -8 -8 -8 -7 -7 -7 -7 -6 -7 -7 -7 -7 -7 -7 -7 -8 -7 -7 -8 -8 -8 -9 -9 -9 -10 -10 -10
-7 -7 -5 -5 -6 -6 -6 -6 -5 -5 -5 -7 -6 -4 -4 -4 -6 -8 -9 -10 -10 -10 -10 -9 -9 -9 -9 -9 -9 -8 -7 -7 -7 -7 -7 -8 -8 -8 -8 -8 -8 -8 -8 -8 -8 -8 -8 -8 -9 -9 -9 -10 -10 -10
-6 -6 -6 -6 -7 -7 -7 -6 -5 -7 -8 -7 -5 -7 -9 -11 -12 -11 -12 -12 -11 -10 -10 -10 -10 -10 -10 -10 -9 -9 -9 -8 -7 -7 -7 -7 -7 -8 -9 -8 -8 -8 -8 -8 -8 -9 -9 -9 -9 -9 -9 -10 -10 -10
-7 -8 -6 -7 -7 -6 -7 -8 -7 -9 -9 -10 -11 -13 -12 -13 -14 -14 -13 -11 -11 -10 -11 -11 -10 -10 -10 -10 -10 -10 -11 -10 -10 -9 -9 -9 -10 -9 -9 -9 -9 -9 -8 -8 -8 -9 -9 -9 -9 -9 -10 -10 -10 -11
-9 -7 -7 -7 -6 -7 -8 -10 -10 -10 -10 -10 -10 -9 -11 -13 -14 -14 -13 -13 -12 -12 -11 -12 -11 -11 -11 -11 -10 -10 -11 -12 -12 -12 -12 -11 -10 -10 -10 -10 -9 -9 -9 -9 -9 -9 -9 -9 -10 -10 -10 -10 -10 -10
-9 -7 -7 -7 -6 -8 -9 -8 -8 -8 -9 -9 -10 -11 -12 -11 -12 -14 -14 -13 -13 -13 -12 -12 -12 -12 -11 -12 -12 -12 -12 -12 -12 -12 -12 -12 -11 -11 -11 -10 -10 -10 -9 -10 -9 -9 -9 -9 -10 -10 -10 -10 -10 -10
-10 -9 -9 -8 -7 -8 -8 -8 -8 -8 -9 -9 -10 -10 -10 -9 -11 -14 -15 -14 -14 -14 -14 -13 -13 -13 -12 -12 -12 -12 -12 -12 -13 -12 -12 -12 -12 -11 -11 -11 -11 -11 -10 -11 -11 -10 -10 -10 -10 -10 -10 -10 -11 -11
Wind_Speed
16 16 16 15 14 13 13 12 11 11 11 11 12 11 9 7 10 13 15 13 7 5 6 4 6 4 3 4 1 13 10 6 7 6 5 6 7 11 14 18 19 15 6 6 13 19 19 13 18 16 13 16 7 12
16 15 14 14 13 11 10 9 9 9 10 9 8 8 8 8 6 4 3 5 6 1 3 4 7 5 6 5 4 3 2 1 6 7 7 4 7 6 11 13 15 17 16 12 8 3 17 19 8 23 4 11 4 6
16 16 14 13 14 12 11 11 9 8 9 9 9 8 8 7 6 6 1 5 5 3 9 12 14 11 12 11 7 4 6 10 12 8 3 3 6 8 9 12 15 20 21 13 14 17 16 25 26 29 15 6 5 1
16 16 14 13 15 14 13 12 10 10 9 9 9 9 8 8 9 8 7 4 3 2 4 6 7 13 17 14 15 18 19 16 12 12 8 5 7 9 10 13 15 14 15 15 16 16 20 26 31 20 15 8 5 6
15 16 14 14 15 14 14 14 12 12 11 11 11 11 11 10 10 9 10 10 8 7 4 8 14 15 13 18 22 20 19 18 17 10 7 8 13 10 12 12 15 15 13 9 12 20 15 24 21 6 8 15 10 10
15 14 14 15 15 15 15 15 15 15 15 15 14 14 13 12 11 8 5 14 17 13 4 3 6 10 13 15 18 20 22 22 22 19 10 15 22 7 6 13 21 28 29 29 20 24 33 22 9 8 6 10 12 14
17 15 15 16 15 15 15 15 15 16 16 17 17 17 17 17 16 17 4 2 8 14 3 4 4 6 16 13 19 20 20 17 18 18 17 18 17 11 9 16 22 27 28 27 27 24 21 9 4 7 6 11 17 17
16 16 16 16 15 15 15 16 17 18 18 18 20 21 22 20 18 23 25 2 12 18 5 3 4 3 10 6 6 16 13 12 11 13 14 13 18 18 9 15 22 24 26 27 23 19 14 7 1 8 14 17 20 22
15 14 15 16 17 17 18 19 20 21 26 25 21 19 21 25 30 32 28 26 14 9 4 5 4 5 7 9 9 9 10 4 6 6 9 9 9 9 9 20 23 25 22 19 8 23 12 11 7 17 17 19 23 25
13 13 14 16 18 19 21 22 23 20 17 18 14 9 7 11 14 20 13 13 12 9 9 5 10 5 10 8 4 7 6 4 4 8 12 9 14 28 32 31 32 27 20 14 11 11 10 13 17 22 21 23 25 26
12 13 14 16 18 15 14 14 15 15 11 17 12 9 9 24 12 7 7 7 8 5 9 16 20 9 14 6 4 10 4 4 4 5 8 5 9 16 35 40 41 38 35 30 22 18 19 17 19 24 23 25 26 26
10 12 11 8 8 9 15 15 15 15 11 12 10 15 29 8 6 6 7 5 7 6 9 10 17 19 7 8 5 7 4 4 6 1 5 3 4 17 15 17 20 28 35 32 29 18 17 16 20 25 27 26 25 25
8 5 5 3 8 10 7 12 14 16 14 17 6 10 5 6 7 7 9 5 5 5 8 12 9 11 7 7 3 4 4 4 2 2 3 4 9 11 9 9 10 9 11 19 22 21 20 18 19 26 27 26 29 29
6 6 2 5 10 5 5 5 17 22 23 5 7 6 5 5 5 5 7 8 11 12 15 16 11 5 6 5 2 4 4 2 3 3 4 4 12 12 9 9 8 6 3 14 21 20 19 16 21 27 30 31 32 29
8 4 3 8 6 2 9 12 21 22 8 5 5 4 6 3 5 4 3 3 10 18 19 15 6 7 5 3 4 4 2 4 5 1 2 8 10 10 9 8 5 4 5 9 14 18 18 20 30 30 29 29 27 27
8 5 2 8 2 10 12 10 2 0 1 2 2 4 4 3 2 1 1 2 8 13 15 11 3 4 3 3 5 5 3 3 3 2 5 9 10 10 8 7 5 5 7 9 12 17 23 30 31 29 28 26 24 23
6 3 5 6 3 15 8 3 1 1 2 2 1 2 4 5 3 3 5 7 6 10 4 2 4 5 2 3 4 1 3 2 4 6 7 7 7 7 8 5 4 5 8 13 19 23 26 27 27 26 26 24 21 21
3 5 7 4 2 8 6 2 1 0 1 1 3 2 2 3 2 4 4 4 6 6 7 1 1 3 2 2 2 3 7 7 4 3 5 9 8 6 4 4 5 7 10 14 17 20 22 24 24 23 21 22 21 20
4 7 2 8 4 0 1 2 2 2 0 0 1 2 3 4 5 7 10 11 11 9 5 2 2 2 3 4 6 8 9 8 9 7 9 8 2 2 3 4 6 8 11 15 18 20 22 22 19 18 19 20 19 20
6 6 2 11 4 2 2 2 1 1 1 2 2 2 3 3 5 10 11 10 8 5 4 2 3 3 4 6 5 6 8 9 6 6 2 5 1 4 6 7 8 10 13 15 16 21 21 17 14 15 16 17 16 18
2 2 4 6 3 2 1 2 1 1 3 2 5 3 3 3 3 5 6 5 5 3 2 4 5 4 1 3 5 6 6 3 3 2 3 4 5 8 8 11 14 14 14 16 19 18 15 13 13 13 15 15 13 13
4 4 4 2 2 2 2 2 2 4 2 5 4 3 4 3 3 2 4 4 3 3 3 4 3 4 3 4 6 7 7 7 1 2 4 7 8 7 9 10 10 10 9 11 11 14 12 12 12 11 14 14 14 13
5 3 2 1 1 2 1 4 3 4 3 4 4 3 2 2 3 4 3 3 3 4 4 4 5 5 5 7 8 9 10 8 9 9 9 10 9 8 10 9 9 10 10 8 7 11 11 10 10 11 13 13 13 13
6 3 3 3 4 2 2 3 3 3 3 4 4 2 3 4 5 3 2 3 5 6 6 5 3 5 7 7 8 8 10 8 9 10 8 8 8 8 7 7 7 7 4 6 6 8 11 11 11 12 13 13 14 15
2 1 1 2 2 2 3 3 2 3 3 4 4 2 3 5 3 3 3 6 9 8 7 5 4 6 7 6 6 6 7 10 8 7 7 6 6 5 3 2 2 4 4 5 7 9 10 9 10 12 13 14 14 15
2 1 3 2 1 2 2 2 4 4 3 3 3 4 4 3 4 3 2 9 10 10 8 6 5 5 4 3 3 3 5 7 7 6 6 6 5 3 2 1 2 4 3 4 6 7 8 9 9 11 13 12 13 14
2 0 1 1 3 3 2 1 1 2 3 3 4 5 4 4 4 3 6 7 8 12 9 10 6 6 5 3 2 2 2 4 3 3 4 3 2 3 4 3 1 3 6 5 5 8 8 9 10 10 11 11 12 14
2 4 3 4 2 2 2 2 2 2 1 2 2 5 2 3 3 3 4 8 10 9 7 8 7 6 5 3 2 2 2 3 2 4 5 5 4 2 2 2 2 2 3 3 2 2 6 9 9 9 10 11 12 12
2 5 5 1 3 2 1 2 1 3 2 3 2 2 2 2 3 3 6 7 11 11 7 5 4 5 3 2 2 2 4 8 7 5 5 5 3 5 4 4 4 3 3 3 3 3 3 3 5 6 8 8 9 10
4 7 5 2 2 1 3 2 1 0 1 0 3 4 3 2 2 7 7 8 8 9 12 10 9 9 8 6 3 3 5 5 5 7 5 3 3 2 5 5 4 3 3 4 5 5 4 4 4 5 5 5 7 8
7 5 4 3 2 2 2 3 4 4 2 1 2 2 6 4 4 8 11 12 11 10 7 7 10 10 10 12 10 6 1 1 2 2 1 1 2 3 4 3 3 3 2 2 3 5 6 4 2 2 3 5 6 7
6 4 4 3 3 4 6 5 6 5 5 5 4 3 5 6 4 4 8 12 9 11 14 9 7 9 8 7 6 5 3 1 1 2 2 2 2 1 3 3 3 3 3 3 3 4 5 5 4 5 6 6 7 7
11 13 13 9 5 5 8 6 7 5 5 5 5 7 5 1 3 4 7 16 12 13 13 14 11 8 7 6 5 5 4 1 2 2 3 3 3 3 3 2 2 1 1 0 1 2 2 3 4 5 5 7 8 9
Wind_Direction
231 227 233 237 245 245 245 244 244 241 236 237 235 226 218 216 224 215 213 191 187 209 270 287 267 238 146 122 303 169 173 185 179 203 216 222 252 260 267 263 263 275 244 236 258 255 253 274 274 268 299 320 339 237
223 229 232 238 234 235 230 225 223 225 223 217 207 195 191 203 184 156 67 150 212 282 281 290 264 253 246 235 184 135 172 47 194 204 212 227 248 259 269 270 275 265 270 281 206 256 307 300 287 304 256 268 282 109
223 226 233 232 225 226 226 221 216 216 208 201 193 194 193 182 183 182 261 164 168 252 284 255 247 252 246 239 240 263 236 230 207 246 263 240 250 267 267 264 267 268 279 287 286 279 296 289 247 255 269 282 148 169
221 224 230 227 220 223 219 218 218 215 211 209 209 206 206 214 224 213 231 241 229 257 272 276 262 252 248 244 240 235 247 263 270 271 245 245 248 250 265 282 276 279 295 290 283 291 302 283 281 235 225 233 182 158
219 224 228 223 221 222 220 223 223 222 223 225 227 231 232 229 228 233 243 242 245 241 309 312 295 270 255 236 236 236 238 245 250 252 248 248 255 272 265 270 264 272 274 267 271 282 251 268 310 318 183 209 214 178
223 224 226 222 224 225 226 227 230 234 237 238 238 237 235 235 237 240 290 258 234 228 269 278 315 273 258 239 233 231 234 232 236 247 247 255 254 267 256 245 256 254 254 255 266 278 292 282 229 197 180 165 146 158
223 222 221 220 227 230 231 232 234 236 240 244 247 246 244 240 230 206 206 222 209 198 222 275 251 241 227 229 230 225 232 237 235 244 244 252 254 252 245 257 268 268 271 276 270 300 277 266 201 192 153 146 143 137
216 221 221 224 229 234 239 242 242 247 251 246 247 245 241 236 234 235 227 241 159 185 197 253 257 203 189 194 219 214 218 230 227 232 245 238 245 241 251 258 264 262 263 268 251 244 238 224 224 151 148 147 143 146
215 221 226 231 237 245 248 250 253 256 253 250 251 247 251 236 225 233 233 224 222 208 224 226 241 278 183 213 206 188 193 218 222 221 230 234 234 228 237 241 253 257 255 259 232 197 188 187 182 172 165 162 157 155
216 225 233 241 249 256 258 260 258 257 257 250 233 193 209 182 193 197 176 191 209 229 234 247 226 229 205 192 192 152 182 221 228 219 224 228 246 249 250 258 269 277 284 283 296 168 176 190 188 177 178 172 172 168
226 238 250 259 261 256 254 256 249 245 238 204 178 189 183 155 142 163 158 180 176 216 219 229 224 216 200 191 196 200 192 210 244 220 195 235 239 240 244 246 250 255 260 267 269 243 219 218 206 187 178 179 176 168
245 260 260 250 250 273 269 259 238 213 197 178 154 142 144 167 169 190 173 192 201 218 202 201 208 208 179 173 201 193 224 215 245 120 196 249 226 234 245 245 253 247 242 240 243 222 190 193 199 196 180 180 173 176
261 237 232 275 293 280 257 237 218 197 184 144 147 177 185 185 193 202 180 191 200 179 179 177 184 180 171 191 215 206 222 234 214 217 217 234 43 43 23 359 343 329 301 234 215 181 182 188 198 188 178 174 181 181
227 196 234 318 315 312 256 173 172 170 153 193 162 191 237 183 226 216 211 200 184 163 177 169 163 186 180 173 225 224 225 236 241 228 228 36 13 2 5 346 337 307 38 151 164 176 185 187 183 180 179 183 189 188
175 158 317 325 324 248 165 146 152 159 198 200 219 216 214 237 62 28 336 245 173 173 170 163 173 205 179 166 212 235 236 228 224 326 47 1 357 351 340 330 303 267 219 167 169 172 172 176 172 178 184 189 193 191
183 236 263 323 351 156 110 103 69 67 54 322 288 291 316 253 125 71 24 123 178 183 171 173 173 188 187 205 196 217 245 233 64 43 7 345 344 334 325 314 293 250 220 201 201 192 181 176 178 178 181 189 191 194
206 279 340 298 168 149 123 110 116 95 47 310 220 290 299 305 39 168 189 197 220 176 164 170 196 199 194 224 214 225 5 56 34 17 343 329 327 325 308 289 259 223 201 190 177 174 175 178 177 182 180 181 185 187
289 7 332 209 181 136 139 101 57 297 196 324 298 27 328 324 164 157 171 177 179 192 194 152 294 214 231 293 47 46 39 16 10 333 320 321 324 301 278 256 214 197 186 183 181 178 179 176 176 174 177 175 179 182
339 340 347 168 137 176 122 149 214 188 123 205 148 86 85 67 111 155 121 102 93 100 97 49 33 11 50 44 12 2 351 341 324 319 316 323 317 244 203 186 174 170 173 177 178 175 172 168 170 176 176 176 181 182
322 329 190 173 172 243 188 194 196 191 190 132 146 77 58 72 78 101 110 101 86 62 53 45 45 52 20 25 353 327 318 317 309 292 281 337 74 119 126 139 149 148 145 142 150 149 142 158 178 180 179 175 190 188
241 271 156 152 210 265 297 204 169 123 151 132 135 128 110 136 104 76 65 77 66 40 105 74 87 65 56 32 352 357 324 308 303 310 86 130 129 135 141 127 121 132 135 142 141 151 158 170 173 185 177 183 197 200
235 179 164 195 228 226 248 233 201 172 160 143 163 164 136 140 109 66 96 71 68 62 66 97 116 92 67 38 21 27 9 28 117 148 159 134 121 120 125 127 134 138 145 146 166 161 165 190 190 193 187 194 199 199
183 149 166 226 181 232 203 180 188 197 166 169 167 146 153 109 124 137 95 77 102 129 128 124 122 116 83 71 39 59 55 74 88 104 114 126 128 133 127 136 142 138 141 155 185 170 188 206 203 196 193 199 192 195
178 195 220 214 233 189 196 230 201 175 142 185 162 174 132 137 161 188 138 103 127 145 138 138 144 142 104 70 55 65 68 67 83 92 89 102 114 117 124 127 132 139 171 205 195 206 217 222 213 200 204 202 196 201
212 343 319 217 241 195 209 197 216 185 179 194 156 157 151 172 183 183 182 139 159 150 147 136 121 89 102 103 77 60 99 86 78 82 76 85 94 87 79 98 174 241 238 222 208 213 232 224 213 202 208 204 203 207
249 349 319 294 237 255 211 215 204 198 153 168 180 122 175 173 179 184 126 149 156 164 158 127 104 133 131 133 101 56 76 103 94 106 95 82 70 95 119 168 320 326 323 249 232 224 226 227 225 212 218 221 213 214
199 283 258 263 282 280 254 285 285 221 197 184 168 179 177 201 180 108 132 113 148 178 171 166 129 113 129 153 137 111 110 105 125 116 97 116 89 76 89 100 138 244 287 283 244 227 229 240 240 232 225 228 226 226
27 2 332 344 282 272 251 257 233 210 175 344 235 194 232 5 100 86 125 161 172 159 155 158 159 164 178 175 174 177 176 130 112 110 85 64 39 47 53 38 30 4 2 12 353 247 221 226 246 238 231 231 235 243
39 348 302 279 282 243 262 314 16 71 352 292 286 132 109 76 105 131 167 174 171 139 144 162 169 137 129 118 118 139 151 142 141 150 133 115 146 317 5 4 343 313 324 337 349 342 320 260 250 245 246 242 238 245
13 345 288 243 249 236 95 329 41 115 21 120 120 112 103 106 199 165 129 136 151 162 176 181 161 166 159 163 116 93 96 115 145 153 162 215 283 353 11 354 6 339 295 296 311 324 327 304 278 259 241 227 215 229
295 291 250 234 267 99 116 211 148 136 132 102 62 117 128 151 164 170 174 170 171 159 148 159 158 160 168 170 156 147 133 93 81 70 51 51 24 335 314 327 328 346 329 286 273 296 317 330 288 260 235 221 216 220
285 264 314 275 178 157 160 217 200 203 169 188 151 152 154 175 149 184 191 156 160 179 172 155 187 181 170 157 156 157 142 129 63 36 23 9 340 34 6 333 319 310 294 294 272 263 271 269 253 257 254 250 236 231
266 269 265 275 198 195 203 214 204 188 203 200 176 186 186 171 130 186 184 171 165 182 186 188 193 185 172 170 161 145 122 71 67 57 47 44 40 25 6 343 335 341 337 59 32 358 318 267 240 246 234 219 213 208
Height
1398 1400 1402 1404 1406 1408 1409 1411 1412 1413 1414 1416 1417 1419 1421 1423 1423 1424 1424 1425 1428 1428 1426 1424 1425 1426 1426 1432 1435 1432 1443 1446 1450 1451 1448 1446 1445 1440 1437 1433 1432 1430 1435 1441 1438 1435 1436 1415 1415 1418 1411 1413 1409 1413
1395 1397 1400 1402 1403 1405 1407 1409 1410 1411 1413 1415 1416 1418 1420 1422 1424 1424 1425 1425 1427 1428 1428 1426 1425 1426 1428 1432 1432 1437 1437 1439 1440 1443 1440 1437 1441 1440 1437 1434 1429 1429 1424 1422 1431 1431 1423 1419 1419 1416 1408 1414 1412 1414
1392 1395 1397 1399 1401 1403 1405 1407 1408 1410 1412 1414 1416 1418 1420 1422 1423 1425 1426 1426 1428 1429 1429 1427 1425 1426 1427 1429 1430 1431 1435 1434 1437 1440 1438 1439 1441 1437 1435 1429 1430 1421 1420 1419 1421 1414 1413 1412 1410 1408 1411 1412 1410 1416
1389 1392 1394 1396 1398 1401 1403 1405 1407 1409 1412 1414 1416 1418 1420 1422 1423 1426 1428 1428 1429 1429 1428 1422 1422 1422 1424 1426 1428 1430 1432 1431 1432 1435 1437 1437 1436 1433 1430 1429 1427 1423 1423 1418 1412 1412 1411 1406 1406 1403 1409 1411 1412 1409
1387 1389 1391 1394 1396 1399 1401 1403 1406 1408 1411 1413 1415 1417 1419 1421 1423 1424 1426 1427 1429 1432 1426 1423 1420 1420 1420 1422 1424 1425 1426 1427 1429 1433 1433 1433 1432 1433 1428 1429 1420 1424 1422 1420 1412 1411 1412 1415 1409 1407 1405 1407 1411 1408
1384 1386 1389 1391 1394 1396 1399 1401 1403 1406 1408 1410 1412 1415 1417 1419 1422 1424 1424 1422 1424 1429 1429 1422 1418 1415 1415 1417 1418 1420 1422 1424 1427 1428 1428 1428 1429 1432 1425 1415 1412 1414 1411 1409 1406 1408 1406 1403 1401 1405 1408 1407 1403 1408
1381 1384 1386 1389 1391 1393 1395 1398 1400 1402 1404 1407 1409 1411 1414 1417 1419 1422 1423 1421 1420 1427 1429 1424 1415 1411 1412 1414 1415 1417 1419 1421 1424 1425 1425 1426 1425 1426 1420 1413 1409 1407 1404 1404 1404 1404 1399 1401 1400 1401 1398 1401 1404 1410
1378 1381 1383 1386 1388 1390 1392 1394 1396 1398 1400 1402 1404 1407 1411 1414 1416 1415 1418 1422 1421 1425 1427 1423 1413 1411 1411 1412 1413 1414 1416 1419 1419 1420 1419 1417 1418 1418 1408 1400 1398 1397 1397 1396 1393 1397 1397 1396 1395 1400 1401 1404 1408 1413
1376 1378 1380 1383 1384 1386 1388 1389 1391 1392 1393 1394 1397 1400 1403 1405 1406 1406 1415 1421 1421 1425 1420 1415 1409 1406 1408 1408 1409 1410 1413 1414 1413 1412 1411 1413 1406 1397 1391 1393 1391 1388 1389 1386 1386 1393 1392 1392 1394 1399 1402 1406 1409 1412
1373 1375 1377 1379 1380 1381 1382 1382 1383 1383 1385 1389 1393 1395 1395 1394 1399 1405 1413 1417 1419 1417 1415 1407 1406 1406 1407 1405 1403 1407 1409 1407 1403 1399 1401 1399 1389 1387 1387 1387 1384 1382 1381 1381 1382 1385 1387 1391 1393 1397 1401 1405 1408 1411
1372 1373 1374 1374 1374 1374 1375 1375 1376 1378 1380 1380 1384 1388 1389 1393 1398 1402 1405 1408 1409 1405 1399 1393 1396 1398 1398 1400 1401 1401 1400 1398 1394 1387 1390 1379 1374 1373 1374 1374 1376 1377 1377 1377 1378 1379 1379 1385 1391 1396 1399 1402 1406 1411
1369 1370 1369 1369 1370 1370 1369 1369 1370 1372 1374 1376 1379 1383 1389 1390 1393 1394 1395 1394 1392 1385 1379 1381 1384 1389 1392 1394 1394 1395 1392 1388 1383 1379 1380 1369 1362 1361 1362 1363 1364 1364 1365 1368 1373 1374 1376 1380 1386 1393 1397 1401 1405 1411
1366 1366 1367 1368 1367 1364 1363 1363 1365 1368 1372 1375 1378 1381 1381 1383 1380 1378 1378 1375 1373 1371 1373 1375 1379 1385 1389 1391 1391 1388 1387 1383 1378 1376 1370 1359 1357 1362 1363 1364 1364 1362 1359 1359 1365 1369 1373 1378 1384 1389 1395 1400 1405 1408
1364 1366 1366 1365 1363 1361 1359 1357 1360 1366 1370 1371 1373 1375 1372 1367 1363 1357 1356 1358 1362 1365 1368 1373 1379 1381 1383 1387 1385 1383 1378 1374 1373 1369 1358 1365 1367 1367 1366 1365 1366 1364 1363 1361 1362 1366 1372 1376 1382 1389 1393 1398 1402 1407
1364 1365 1365 1363 1361 1360 1359 1360 1363 1367 1367 1368 1367 1362 1359 1357 1359 1359 1358 1358 1359 1361 1365 1371 1376 1377 1377 1380 1378 1377 1376 1370 1363 1359 1369 1372 1371 1369 1368 1367 1367 1366 1366 1367 1368 1370 1373 1376 1382 1387 1394 1398 1403 1407
1364 1365 1364 1362 1360 1360 1361 1363 1364 1365 1365 1365 1364 1362 1359 1358 1360 1360 1360 1359 1360 1362 1365 1369 1369 1371 1372 1371 1371 1370 1364 1359 1367 1373 1374 1373 1371 1370 1369 1367 1367 1367 1368 1368 1369 1371 1374 1378 1383 1389 1394 1398 1403 1407
1364 1363 1363 1362 1360 1362 1362 1364 1365 1366 1366 1366 1365 1364 1363 1361 1359 1359 1360 1361 1362 1363 1366 1366 1367 1365 1365 1363 1361 1359 1365 1372 1375 1375 1375 1373 1372 1370 1369 1368 1368 1368 1368 1369 1370 1373 1376 1381 1386 1390 1394 1398 1402 1406
1362 1363 1363 1362 1362 1363 1364 1364 1366 1366 1366 1365 1363 1363 1362 1362 1360 1360 1360 1361 1362 1363 1364 1364 1365 1364 1363 1361 1363 1372 1374 1374 1374 1374 1373 1371 1370 1368 1368 1368 1368 1369 1370 1371 1373 1375 1379 1383 1387 1391 1395 1398 1401 1405
1364 1364 1362 1363 1364 1363 1364 1365 1366 1365 1366 1365 1364 1364 1363 1362 1361 1361 1361 1362 1362 1364 1366 1368 1368 1367 1370 1374 1376 1376 1376 1375 1374 1373 1372 1370 1369 1368 1368 1368 1369 1370 1371 1372 1374 1376 1380 1385 1390 1392 1395 1398 1401 1404
1364 1363 1362 1364 1365 1364 1364 1365 1364 1364 1363 1365 1364 1364 1364 1364 1364 1363 1363 1363 1364 1366 1370 1372 1374 1377 1378 1379 1378 1378 1376 1374 1373 1372 1371 1371 1370 1369 1370 1370 1370 1372 1374 1376 1378 1381 1384 1388 1391 1393 1395 1398 1401 1403
1363 1363 1363 1364 1366 1365 1364 1363 1363 1363 1363 1363 1364 1364 1366 1366 1366 1365 1365 1367 1369 1371 1374 1377 1378 1379 1379 1379 1378 1376 1374 1372 1372 1372 1371 1372 1372 1372 1372 1373 1375 1376 1378 1380 1382 1385 1388 1390 1392 1393 1396 1398 1401 1403
1363 1363 1364 1364 1364 1364 1363 1362 1362 1362 1363 1363 1364 1364 1365 1365 1366 1368 1368 1370 1373 1376 1376 1377 1378 1379 1379 1378 1377 1376 1374 1372 1371 1372 1372 1373 1374 1375 1376 1377 1378 1380 1381 1383 1384 1386 1388 1389 1391 1393 1395 1397 1399 1402
1363 1363 1363 1363 1363 1362 1363 1361 1362 1362 1362 1362 1363 1363 1364 1365 1367 1368 1370 1372 1375 1377 1377 1378 1379 1379 1379 1379 1379 1377 1376 1375 1374 1374 1375 1375 1377 1378 1379 1380 1380 1382 1383 1385 1386 1387 1388 1389 1391 1392 1394 1396 1398 1400
1363 1363 1362 1361 1361 1360 1361 1359 1358 1358 1359 1359 1359 1361 1362 1364 1367 1367 1367 1372 1375 1377 1377 1378 1379 1379 1380 1380 1379 1378 1377 1378 1377 1378 1378 1379 1379 1380 1381 1381 1382 1383 1384 1385 1386 1386 1387 1388 1390 1391 1393 1394 1396 1398
1365 1364 1363 1360 1360 1360 1358 1356 1356 1354 1356 1357 1358 1359 1361 1363 1363 1363 1365 1372 1375 1376 1377 1378 1379 1379 1380 1381 1381 1380 1380 1379 1380 1380 1380 1380 1380 1381 1382 1382 1383 1383 1384 1384 1385 1386 1386 1387 1388 1390 1391 1393 1395 1396
1360 1363 1362 1359 1358 1358 1355 1354 1354 1353 1354 1355 1357 1357 1359 1359 1361 1361 1364 1370 1373 1375 1377 1378 1379 1379 1380 1380 1380 1381 1381 1381 1381 1381 1381 1382 1382 1382 1382 1383 1383 1384 1384 1384 1385 1385 1386 1386 1387 1388 1389 1390 1392 1393
1360 1361 1362 1361 1361 1359 1357 1356 1355 1354 1353 1352 1354 1357 1357 1356 1355 1364 1368 1369 1371 1373 1375 1376 1377 1378 1379 1380 1380 1380 1380 1381 1381 1382 1382 1382 1382 1382 1382 1382 1382 1383 1382 1382 1382 1383 1384 1385 1385 1386 1387 1388 1388 1390
1364 1364 1362 1362 1360 1359 1357 1356 1355 1354 1354 1356 1354 1353 1352 1353 1358 1366 1367 1369 1370 1372 1374 1375 1376 1378 1379 1379 1380 1380 1380 1381 1381 1382 1383 1383 1382 1382 1382 1381 1381 1381 1381 1381 1381 1381 1382 1383 1383 1384 1384 1385 1386 1387
1364 1364 1363 1361 1360 1359 1358 1357 1356 1359 1360 1358 1355 1356 1362 1365 1366 1366 1367 1368 1369 1372 1374 1376 1377 1378 1379 1380 1380 1380 1380 1381 1382 1383 1383 1383 1383 1382 1381 1381 1380 1380 1380 1381 1381 1380 1380 1380 1381 1382 1382 1383 1384 1384
1365 1365 1362 1360 1360 1356 1360 1361 1360 1360 1360 1360 1360 1362 1364 1364 1364 1365 1367 1369 1370 1372 1373 1374 1377 1378 1380 1381 1381 1381 1381 1381 1381 1381 1381 1381 1381 1380 1380 1380 1380 1379 1379 1379 1379 1379 1379 1378 1379 1379 1380 1381 1382 1383
1367 1365 1361 1359 1356 1358 1359 1360 1360 1360 1361 1361 1361 1361 1363 1365 1365 1365 1366 1367 1369 1371 1373 1374 1376 1377 1378 1379 1380 1382 1381 1381 1380 1380 1379 1379 1380 1379 1378 1378 1378 1378 1378 1378 1378 1378 1377 1377 1378 1378 1379 1379 1380 1381
1367 1362 1360 1356 1355 1357 1358 1359 1358 1358 1359 1360 1361 1362 1364 1364 1365 1366 1365 1367 1370 1371 1372 1374 1374 1375 1376 1377 1378 1379 1379 1379 1379 1379 1378 1377 1377 1377 1377 1377 1377 1377 1377 1377 1377 1377 1377 1377 1377 1378 1378 1378 1379 1380
1362 1361 1359 1356 1353 1354 1354 1356 1354 1354 1355 1355 1357 1358 1359 1359 1361 1364 1363 1365 1367 1368 1370 1371 1372 1373 1374 1375 1376 1377 1378 1378 1378 1377 1377 1377 1377 1377 1377 1376 1376 1375 1375 1375 1375 1375 1375 1375 1375 1376 1376 1377 1377 1378